Location: Breitenfeld
(46.8500°N, 15.6333°E)
Time: 07:50:43
(UTC+00:00)

MOS 1 Rocket - Visible Passes

Search period start: 11 August 2020 00:00
Search period end: 21 August 2020 00:00
Orbit: 616 x 829 km, 97.4° (Epoch: 11 August)

Date Brightness Start Highest point End Pass type
(mag) Time Alt. Az. Time Alt. Az. Time Alt. Az.
11 Aug 4.7 19:03:09 10° N 19:08:24 50° WNW 19:13:31 10° SW visible
12 Aug 6.3 19:52:57 10° NNW 19:56:57 21° WNW 20:00:53 10° WSW visible
13 Aug 4.7 19:02:56 10° N 19:08:11 49° WNW 19:13:15 10° SW visible
14 Aug 6.3 19:52:46 10° NNW 19:56:43 21° WNW 20:00:36 10° WSW visible
15 Aug 4.7 19:02:45 10° N 19:07:58 49° WNW 19:12:59 10° SW visible
16 Aug 6.3 19:52:35 10° NNW 19:56:30 21° WNW 20:00:18 10° WSW visible
17 Aug 4.8 19:02:34 10° N 19:07:45 48° WNW 19:12:42 10° SW visible
18 Aug 6.3 19:52:26 10° NNW 19:56:16 20° WNW 20:00:00 10° WSW visible
19 Aug 4.8 19:02:23 10° N 19:07:31 47° WNW 19:12:26 10° SW visible
20 Aug 6.3 19:52:16 10° NNW 19:56:02 20° WNW 19:59:41 10° WSW visible
